Date_Time,Julian_Date,Latitude,Longitude,Instrument_Depth,U,V,Speed,Direction
(yyyy-mm-dd hh:mn:ss UTC),(JD),(+ deg. North),(+ deg. East),(m),(cm/s),(cm/s),(cm/s),(deg True)
1983-08-31 22:00:00 UTC,2445578.416667,28.7317,-95.2428,0201,3.91,24.69,25.0000,9.0000
1983-08-31 22:30:00 UTC,2445578.437500,28.7317,-95.2428,0201,4.34,24.62,25.0000,10.0000
1983-08-31 23:00:00 UTC,2445578.458333,28.7317,-95.2428,0201,5.20,24.45,25.0000,12.0000
1983-08-31 23:30:00 UTC,2445578.479167,28.7317,-95.2428,0201,5.85,25.33,26.0000,13.0000
1983-09-01 00:00:00 UTC,2445578.500000,28.7317,-95.2428,0201,5.85,25.33,26.0000,13.0000
1983-09-01 00:30:00 UTC,2445578.520833,28.7317,-95.2428,0201,5.41,25.43,26.0000,12.0000
1983-09-01 01:00:00 UTC,2445578.541667,28.7317,-95.2428,0201,5.41,25.43,26.0000,12.0000
1983-09-01 01:30:00 UTC,2445578.562500,28.7317,-95.2428,0201,5.62,24.36,25.0000,13.0000
1983-09-01 02:00:00 UTC,2445578.583333,28.7317,-95.2428,0201,5.62,24.36,25.0000,13.0000
1983-09-01 02:30:00 UTC,2445578.604167,28.7317,-95.2428,0201,5.62,24.36,25.0000,13.0000
1983-09-01 03:00:00 UTC,2445578.625000,28.7317,-95.2428,0201,5.40,23.38,24.0000,13.0000
1983-09-01 03:30:00 UTC,2445578.645833,28.7317,-95.2428,0201,5.95,22.22,23.0000,15.0000
1983-09-01 04:00:00 UTC,2445578.666667,28.7317,-95.2428,0201,5.95,22.22,23.0000,15.0000
1983-09-01 04:30:00 UTC,2445578.687500,28.7317,-95.2428,0201,4.95,21.44,22.0000,13.0000
1983-09-01 05:00:00 UTC,2445578.708333,28.7317,-95.2428,0201,4.72,20.46,21.0000,13.0000
1983-09-01 05:30:00 UTC,2445578.729167,28.7317,-95.2428,0201,5.32,21.35,22.0000,14.0000
1983-09-01 06:00:00 UTC,2445578.750000,28.7317,-95.2428,0201,5.44,20.28,21.0000,15.0000
1983-09-01 06:30:00 UTC,2445578.770833,28.7317,-95.2428,0201,5.44,20.28,21.0000,15.0000
1983-09-01 07:00:00 UTC,2445578.791667,28.7317,-95.2428,0201,5.85,19.13,20.0000,17.0000
1983-09-01 07:30:00 UTC,2445578.812500,28.7317,-95.2428,0201,5.56,18.17,19.0000,17.0000
1983-09-01 08:00:00 UTC,2445578.833333,28.7317,-95.2428,0201,4.60,18.44,19.0000,14.0000
1983-09-01 08:30:00 UTC,2445578.854167,28.7317,-95.2428,0201,4.60,18.44,19.0000,14.0000
1983-09-01 09:00:00 UTC,2445578.875000,28.7317,-95.2428,0201,6.18,19.02,20.0000,18.0000
1983-09-01 09:30:00 UTC,2445578.895833,28.7317,-95.2428,0201,8.77,17.98,20.0000,26.0000
1983-09-01 10:00:00 UTC,2445578.916667,28.7317,-95.2428,0201,10.00,17.32,20.0000,30.0000
1983-09-01 10:30:00 UTC,2445578.937500,28.7317,-95.2428,0201,10.00,17.32,20.0000,30.0000
1983-09-01 11:00:00 UTC,2445578.958333,28.7317,-95.2428,0201,10.00,17.32,20.0000,30.0000
1983-09-01 11:30:00 UTC,2445578.979167,28.7317,-95.2428,0201,9.21,16.62,19.0000,29.0000
1983-09-01 12:00:00 UTC,2445579.000000,28.7317,-95.2428,0201,7.72,15.15,17.0000,27.0000
1983-09-01 12:30:00 UTC,2445579.020833,28.7317,-95.2428,0201,6.64,15.65,17.0000,23.0000
1983-09-01 13:00:00 UTC,2445579.041667,28.7317,-95.2428,0201,4.96,17.30,18.0000,16.0000
1983-09-01 13:30:00 UTC,2445579.062500,28.7317,-95.2428,0201,3.63,18.65,19.0000,11.0000
1983-09-01 14:00:00 UTC,2445579.083333,28.7317,-95.2428,0201,3.47,19.70,20.0000,10.0000
1983-09-01 14:30:00 UTC,2445579.104167,28.7317,-95.2428,0201,2.56,20.84,21.0000,7.0000
1983-09-01 15:00:00 UTC,2445579.125000,28.7317,-95.2428,0201,2.00,22.91,23.0000,5.0000
1983-09-01 15:30:00 UTC,2445579.145833,28.7317,-95.2428,0201,3.75,23.70,24.0000,9.0000
1983-09-01 16:00:00 UTC,2445579.166667,28.7317,-95.2428,0201,6.21,23.18,24.0000,15.0000
1983-09-01 16:30:00 UTC,2445579.187500,28.7317,-95.2428,0201,7.49,21.75,23.0000,19.0000
1983-09-01 17:00:00 UTC,2445579.208333,28.7317,-95.2428,0201,6.80,20.92,22.0000,18.0000
1983-09-01 17:30:00 UTC,2445579.229167,28.7317,-95.2428,0201,4.72,20.46,21.0000,13.0000
1983-09-01 18:00:00 UTC,2445579.250000,28.7317,-95.2428,0201,2.92,20.80,21.0000,8.0000
1983-09-01 18:30:00 UTC,2445579.270833,28.7317,-95.2428,0201,2.64,18.82,19.0000,8.0000
1983-09-01 19:00:00 UTC,2445579.291667,28.7317,-95.2428,0201,3.33,15.65,16.0000,12.0000
1983-09-01 19:30:00 UTC,2445579.312500,28.7317,-95.2428,0201,4.33,13.31,14.0000,18.0000
1983-09-01 20:00:00 UTC,2445579.333333,28.7317,-95.2428,0201,4.02,12.36,13.0000,18.0000
1983-09-01 20:30:00 UTC,2445579.354167,28.7317,-95.2428,0201,3.86,13.46,14.0000,16.0000
1983-09-01 21:00:00 UTC,2445579.375000,28.7317,-95.2428,0201,4.64,14.27,15.0000,18.0000
1983-09-01 21:30:00 UTC,2445579.395833,28.7317,-95.2428,0201,4.79,13.16,14.0000,20.0000
1983-09-01 22:00:00 UTC,2445579.416667,28.7317,-95.2428,0201,4.33,13.31,14.0000,18.0000
1983-09-01 22:30:00 UTC,2445579.437500,28.7317,-95.2428,0201,4.23,12.29,13.0000,19.0000
1983-09-01 23:00:00 UTC,2445579.458333,28.7317,-95.2428,0201,4.87,12.05,13.0000,22.0000
1983-09-01 23:30:00 UTC,2445579.479167,28.7317,-95.2428,0201,5.08,11.97,13.0000,23.0000
1983-09-02 00:00:00 UTC,2445579.500000,28.7317,-95.2428,0201,5.62,13.91,15.0000,22.0000
1983-09-02 00:30:00 UTC,2445579.520833,28.7317,-95.2428,0201,6.10,13.70,15.0000,24.0000
1983-09-02 01:00:00 UTC,2445579.541667,28.7317,-95.2428,0201,7.01,14.38,16.0000,26.0000
1983-09-02 01:30:00 UTC,2445579.562500,28.7317,-95.2428,0201,6.25,14.73,16.0000,23.0000
1983-09-02 02:00:00 UTC,2445579.583333,28.7317,-95.2428,0201,4.68,15.30,16.0000,17.0000
1983-09-02 02:30:00 UTC,2445579.604167,28.7317,-95.2428,0201,3.88,14.49,15.0000,15.0000
1983-09-02 03:00:00 UTC,2445579.625000,28.7317,-95.2428,0201,4.09,13.39,14.0000,17.0000
1983-09-02 03:30:00 UTC,2445579.645833,28.7317,-95.2428,0201,3.36,12.56,13.0000,15.0000
1983-09-02 04:00:00 UTC,2445579.666667,28.7317,-95.2428,0201,2.29,11.78,12.0000,11.0000
1983-09-02 04:30:00 UTC,2445579.687500,28.7317,-95.2428,0201,0.96,10.96,11.0000,5.0000
1983-09-02 05:00:00 UTC,2445579.708333,28.7317,-95.2428,0201,0.21,12.00,12.0000,1.0000
1983-09-02 05:30:00 UTC,2445579.729167,28.7317,-95.2428,0201,0.21,12.00,12.0000,1.0000
1983-09-02 06:00:00 UTC,2445579.750000,28.7317,-95.2428,0201,0.70,9.98,10.0000,4.0000
1983-09-02 06:30:00 UTC,2445579.770833,28.7317,-95.2428,0201,0.31,8.99,9.0000,2.0000
1983-09-02 07:00:00 UTC,2445579.791667,28.7317,-95.2428,0201,-0.16,9.00,9.0000,359.0000
1983-09-02 07:30:00 UTC,2445579.812500,28.7317,-95.2428,0201,0.97,7.94,8.0000,7.0000
1983-09-02 08:00:00 UTC,2445579.833333,28.7317,-95.2428,0201,2.28,6.62,7.0000,19.0000
1983-09-02 08:30:00 UTC,2445579.854167,28.7317,-95.2428,0201,3.29,6.18,7.0000,28.0000
1983-09-02 09:00:00 UTC,2445579.875000,28.7317,-95.2428,0201,4.11,5.66,7.0000,36.0000
1983-09-02 09:30:00 UTC,2445579.895833,28.7317,-95.2428,0201,4.77,5.12,7.0000,43.0000
1983-09-02 10:00:00 UTC,2445579.916667,28.7317,-95.2428,0201,4.95,4.95,7.0000,45.0000
1983-09-02 10:30:00 UTC,2445579.937500,28.7317,-95.2428,0201,3.53,4.85,6.0000,36.0000
1983-09-02 11:00:00 UTC,2445579.958333,28.7317,-95.2428,0201,1.75,5.74,6.0000,17.0000
1983-09-02 11:30:00 UTC,2445579.979167,28.7317,-95.2428,0201,0.70,7.97,8.0000,5.0000
1983-09-02 12:00:00 UTC,2445580.000000,28.7317,-95.2428,0201,0.31,8.99,9.0000,2.0000
1983-09-02 12:30:00 UTC,2445580.020833,28.7317,-95.2428,0201,0.58,10.98,11.0000,3.0000
1983-09-02 13:00:00 UTC,2445580.041667,28.7317,-95.2428,0201,1.36,12.93,13.0000,6.0000
1983-09-02 13:30:00 UTC,2445580.062500,28.7317,-95.2428,0201,2.03,12.84,13.0000,9.0000
1983-09-02 14:00:00 UTC,2445580.083333,28.7317,-95.2428,0201,1.91,10.83,11.0000,10.0000
1983-09-02 14:30:00 UTC,2445580.104167,28.7317,-95.2428,0201,1.11,7.92,8.0000,8.0000
1983-09-02 15:00:00 UTC,2445580.125000,28.7317,-95.2428,0201,0.10,6.00,6.0000,1.0000
1983-09-02 15:30:00 UTC,2445580.145833,28.7317,-95.2428,0201,-0.73,5.96,6.0000,353.0000
1983-09-02 16:00:00 UTC,2445580.166667,28.7317,-95.2428,0201,-1.14,5.89,6.0000,349.0000
1983-09-02 16:30:00 UTC,2445580.187500,28.7317,-95.2428,0201,-1.29,4.83,5.0000,345.0000
1983-09-02 17:00:00 UTC,2445580.208333,28.7317,-95.2428,0201,-1.71,4.70,5.0000,340.0000
1983-09-02 17:30:00 UTC,2445580.229167,28.7317,-95.2428,0201,-1.82,3.56,4.0000,333.0000
1983-09-02 18:00:00 UTC,2445580.250000,28.7317,-95.2428,0201,-2.93,2.73,4.0000,313.0000
1983-09-02 18:30:00 UTC,2445580.270833,28.7317,-95.2428,0201,-4.91,0.95,5.0000,281.0000
1983-09-02 19:00:00 UTC,2445580.291667,28.7317,-95.2428,0201,-5.91,-1.04,6.0000,260.0000
1983-09-02 19:30:00 UTC,2445580.312500,28.7317,-95.2428,0201,-5.87,-3.81,7.0000,237.0000
1983-09-02 20:00:00 UTC,2445580.333333,28.7317,-95.2428,0201,-3.00,-7.42,8.0000,202.0000
1983-09-02 20:30:00 UTC,2445580.354167,28.7317,-95.2428,0201,-0.77,-10.97,11.0000,184.0000
1983-09-02 21:00:00 UTC,2445580.375000,28.7317,-95.2428,0201,-1.58,-12.90,13.0000,187.0000
1983-09-02 21:30:00 UTC,2445580.395833,28.7317,-95.2428,0201,-4.14,-15.45,16.0000,195.0000
1983-09-02 22:00:00 UTC,2445580.416667,28.7317,-95.2428,0201,-5.13,-14.10,15.0000,200.0000
1983-09-02 22:30:00 UTC,2445580.437500,28.7317,-95.2428,0201,-5.92,-12.69,14.0000,205.0000
1983-09-02 23:00:00 UTC,2445580.458333,28.7317,-95.2428,0201,-6.14,-12.58,14.0000,206.0000
1983-09-02 23:30:00 UTC,2445580.479167,28.7317,-95.2428,0201,-6.34,-13.59,15.0000,205.0000
1983-09-03 00:00:00 UTC,2445580.500000,28.7317,-95.2428,0201,-6.10,-13.70,15.0000,204.0000
1983-09-03 00:30:00 UTC,2445580.520833,28.7317,-95.2428,0201,-5.38,-14.00,15.0000,201.0000
1983-09-03 01:00:00 UTC,2445580.541667,28.7317,-95.2428,0201,-4.39,-14.34,15.0000,197.0000
1983-09-03 01:30:00 UTC,2445580.562500,28.7317,-95.2428,0201,-2.86,-14.72,15.0000,191.0000
1983-09-03 02:00:00 UTC,2445580.583333,28.7317,-95.2428,0201,-1.83,-14.89,15.0000,187.0000
1983-09-03 02:30:00 UTC,2445580.604167,28.7317,-95.2428,0201,-1.31,-14.94,15.0000,185.0000
1983-09-03 03:00:00 UTC,2445580.625000,28.7317,-95.2428,0201,-1.05,-14.96,15.0000,184.0000
1983-09-03 03:30:00 UTC,2445580.645833,28.7317,-95.2428,0201,-1.71,-13.90,14.0000,187.0000
1983-09-03 04:00:00 UTC,2445580.666667,28.7317,-95.2428,0201,-3.11,-11.59,12.0000,195.0000
1983-09-03 04:30:00 UTC,2445580.687500,28.7317,-95.2428,0201,-3.58,-10.40,11.0000,199.0000
1983-09-03 05:00:00 UTC,2445580.708333,28.7317,-95.2428,0201,-2.85,-10.63,11.0000,195.0000
1983-09-03 05:30:00 UTC,2445580.729167,28.7317,-95.2428,0201,-2.10,-10.80,11.0000,191.0000
1983-09-03 06:00:00 UTC,2445580.750000,28.7317,-95.2428,0201,-2.47,-10.72,11.0000,193.0000
1983-09-03 06:30:00 UTC,2445580.770833,28.7317,-95.2428,0201,-3.51,-11.48,12.0000,197.0000
1983-09-03 07:00:00 UTC,2445580.791667,28.7317,-95.2428,0201,-4.23,-12.29,13.0000,199.0000
1983-09-03 07:30:00 UTC,2445580.812500,28.7317,-95.2428,0201,-5.62,-13.91,15.0000,202.0000
1983-09-03 08:00:00 UTC,2445580.833333,28.7317,-95.2428,0201,-6.91,-15.53,17.0000,204.0000
1983-09-03 08:30:00 UTC,2445580.854167,28.7317,-95.2428,0201,-7.32,-16.44,18.0000,204.0000
1983-09-03 09:00:00 UTC,2445580.875000,28.7317,-95.2428,0201,-6.74,-16.69,18.0000,202.0000
1983-09-03 09:30:00 UTC,2445580.895833,28.7317,-95.2428,0201,-4.97,-16.26,17.0000,197.0000
1983-09-03 10:00:00 UTC,2445580.916667,28.7317,-95.2428,0201,-3.33,-15.65,16.0000,192.0000
1983-09-03 10:30:00 UTC,2445580.937500,28.7317,-95.2428,0201,-2.09,-14.85,15.0000,188.0000
1983-09-03 11:00:00 UTC,2445580.958333,28.7317,-95.2428,0201,-1.05,-14.96,15.0000,184.0000
1983-09-03 11:30:00 UTC,2445580.979167,28.7317,-95.2428,0201,-0.56,-15.99,16.0000,182.0000
1983-09-03 12:00:00 UTC,2445581.000000,28.7317,-95.2428,0201,-0.28,-16.00,16.0000,181.0000
1983-09-03 12:30:00 UTC,2445581.020833,28.7317,-95.2428,0201,-0.28,-16.00,16.0000,181.0000
1983-09-03 13:00:00 UTC,2445581.041667,28.7317,-95.2428,0201,-0.84,-15.98,16.0000,183.0000
1983-09-03 13:30:00 UTC,2445581.062500,28.7317,-95.2428,0201,-2.43,-13.79,14.0000,190.0000
1983-09-03 14:00:00 UTC,2445581.083333,28.7317,-95.2428,0201,-3.76,-10.34,11.0000,200.0000
1983-09-03 14:30:00 UTC,2445581.104167,28.7317,-95.2428,0201,-3.08,-8.46,9.0000,200.0000
1983-09-03 15:00:00 UTC,2445581.125000,28.7317,-95.2428,0201,-1.25,-8.91,9.0000,188.0000
1983-09-03 15:30:00 UTC,2445581.145833,28.7317,-95.2428,0201,-0.78,-8.97,9.0000,185.0000
1983-09-03 16:00:00 UTC,2445581.166667,28.7317,-95.2428,0201,-2.08,-9.78,10.0000,192.0000
1983-09-03 16:30:00 UTC,2445581.187500,28.7317,-95.2428,0201,-4.50,-11.13,12.0000,202.0000
1983-09-03 17:00:00 UTC,2445581.208333,28.7317,-95.2428,0201,-6.58,-13.48,15.0000,206.0000
1983-09-03 17:30:00 UTC,2445581.229167,28.7317,-95.2428,0201,-6.64,-15.65,17.0000,203.0000
1983-09-03 18:00:00 UTC,2445581.250000,28.7317,-95.2428,0201,-6.37,-15.76,17.0000,202.0000
1983-09-03 18:30:00 UTC,2445581.270833,28.7317,-95.2428,0201,-5.86,-13.81,15.0000,203.0000
1983-09-03 19:00:00 UTC,2445581.291667,28.7317,-95.2428,0201,-6.14,-12.58,14.0000,206.0000
1983-09-03 19:30:00 UTC,2445581.312500,28.7317,-95.2428,0201,-7.27,-13.12,15.0000,209.0000
1983-09-03 20:00:00 UTC,2445581.333333,28.7317,-95.2428,0201,-7.98,-15.01,17.0000,208.0000
1983-09-03 20:30:00 UTC,2445581.354167,28.7317,-95.2428,0201,-8.17,-16.04,18.0000,207.0000
1983-09-03 21:00:00 UTC,2445581.375000,28.7317,-95.2428,0201,-8.73,-15.74,18.0000,209.0000
1983-09-03 21:30:00 UTC,2445581.395833,28.7317,-95.2428,0201,-9.27,-15.43,18.0000,211.0000
1983-09-03 22:00:00 UTC,2445581.416667,28.7317,-95.2428,0201,-7.76,-13.99,16.0000,209.0000
1983-09-03 22:30:00 UTC,2445581.437500,28.7317,-95.2428,0201,-5.02,-13.07,14.0000,201.0000
1983-09-03 23:00:00 UTC,2445581.458333,28.7317,-95.2428,0201,-2.67,-13.74,14.0000,191.0000
1983-09-03 23:30:00 UTC,2445581.479167,28.7317,-95.2428,0201,-2.23,-15.84,16.0000,188.0000
1983-09-04 00:00:00 UTC,2445581.500000,28.7317,-95.2428,0201,-1.78,-16.91,17.0000,186.0000
1983-09-04 00:30:00 UTC,2445581.520833,28.7317,-95.2428,0201,-0.94,-17.98,18.0000,183.0000
1983-09-04 01:00:00 UTC,2445581.541667,28.7317,-95.2428,0201,-0.35,-20.00,20.0000,181.0000
1983-09-04 01:30:00 UTC,2445581.562500,28.7317,-95.2428,0201,0.70,-19.99,20.0000,178.0000
1983-09-04 02:00:00 UTC,2445581.583333,28.7317,-95.2428,0201,2.09,-19.89,20.0000,174.0000
1983-09-04 02:30:00 UTC,2445581.604167,28.7317,-95.2428,0201,2.78,-19.81,20.0000,172.0000
1983-09-04 03:00:00 UTC,2445581.625000,28.7317,-95.2428,0201,1.66,-18.93,19.0000,175.0000
1983-09-04 03:30:00 UTC,2445581.645833,28.7317,-95.2428,0201,0.33,-19.00,19.0000,179.0000
1983-09-04 04:00:00 UTC,2445581.666667,28.7317,-95.2428,0201,-0.37,-21.00,21.0000,181.0000
1983-09-04 04:30:00 UTC,2445581.687500,28.7317,-95.2428,0201,-2.92,-20.80,21.0000,188.0000
1983-09-04 05:00:00 UTC,2445581.708333,28.7317,-95.2428,0201,-5.56,-18.17,19.0000,197.0000
1983-09-04 05:30:00 UTC,2445581.729167,28.7317,-95.2428,0201,-6.37,-15.76,17.0000,202.0000
1983-09-04 06:00:00 UTC,2445581.750000,28.7317,-95.2428,0201,-6.37,-15.76,17.0000,202.0000
1983-09-04 06:30:00 UTC,2445581.770833,28.7317,-95.2428,0201,-7.32,-16.44,18.0000,204.0000
1983-09-04 07:00:00 UTC,2445581.791667,28.7317,-95.2428,0201,-8.63,-16.93,19.0000,207.0000
1983-09-04 07:30:00 UTC,2445581.812500,28.7317,-95.2428,0201,-10.18,-18.37,21.0000,209.0000
1983-09-04 08:00:00 UTC,2445581.833333,28.7317,-95.2428,0201,-10.80,-20.31,23.0000,208.0000
1983-09-04 08:30:00 UTC,2445581.854167,28.7317,-95.2428,0201,-10.16,-23.93,26.0000,203.0000
1983-09-04 09:00:00 UTC,2445581.875000,28.7317,-95.2428,0201,-10.11,-25.03,27.0000,202.0000
1983-09-04 09:30:00 UTC,2445581.895833,28.7317,-95.2428,0201,-10.57,-22.66,25.0000,205.0000
1983-09-04 10:00:00 UTC,2445581.916667,28.7317,-95.2428,0201,-10.14,-21.75,24.0000,205.0000
1983-09-04 10:30:00 UTC,2445581.937500,28.7317,-95.2428,0201,-8.24,-20.40,22.0000,202.0000
1983-09-04 11:00:00 UTC,2445581.958333,28.7317,-95.2428,0201,-7.53,-19.61,21.0000,201.0000
1983-09-04 11:30:00 UTC,2445581.979167,28.7317,-95.2428,0201,-7.18,-19.73,21.0000,200.0000
1983-09-04 12:00:00 UTC,2445582.000000,28.7317,-95.2428,0201,-6.84,-18.79,20.0000,200.0000
1983-09-04 12:30:00 UTC,2445582.020833,28.7317,-95.2428,0201,-6.18,-19.02,20.0000,198.0000
1983-09-04 13:00:00 UTC,2445582.041667,28.7317,-95.2428,0201,-4.92,-18.35,19.0000,195.0000
1983-09-04 13:30:00 UTC,2445582.062500,28.7317,-95.2428,0201,-5.24,-18.26,19.0000,196.0000
1983-09-04 14:00:00 UTC,2445582.083333,28.7317,-95.2428,0201,-5.56,-17.12,18.0000,198.0000
1983-09-04 14:30:00 UTC,2445582.104167,28.7317,-95.2428,0201,-5.53,-16.07,17.0000,199.0000
1983-09-04 15:00:00 UTC,2445582.125000,28.7317,-95.2428,0201,-5.21,-15.13,16.0000,199.0000
1983-09-04 15:30:00 UTC,2445582.145833,28.7317,-95.2428,0201,-5.13,-14.10,15.0000,200.0000
1983-09-04 16:00:00 UTC,2445582.166667,28.7317,-95.2428,0201,-6.76,-14.50,16.0000,205.0000
1983-09-04 16:30:00 UTC,2445582.187500,28.7317,-95.2428,0201,-7.72,-15.15,17.0000,207.0000
1983-09-04 17:00:00 UTC,2445582.208333,28.7317,-95.2428,0201,-8.17,-16.04,18.0000,207.0000
1983-09-04 17:30:00 UTC,2445582.229167,28.7317,-95.2428,0201,-8.24,-14.87,17.0000,209.0000
1983-09-04 18:00:00 UTC,2445582.250000,28.7317,-95.2428,0201,-8.82,-12.14,15.0000,216.0000
1983-09-04 18:30:00 UTC,2445582.270833,28.7317,-95.2428,0201,-9.03,-9.35,13.0000,224.0000
1983-09-04 19:00:00 UTC,2445582.291667,28.7317,-95.2428,0201,-9.90,-9.90,14.0000,225.0000
1983-09-04 19:30:00 UTC,2445582.312500,28.7317,-95.2428,0201,-9.44,-11.66,15.0000,219.0000
1983-09-04 20:00:00 UTC,2445582.333333,28.7317,-95.2428,0201,-8.95,-13.26,16.0000,214.0000
1983-09-04 20:30:00 UTC,2445582.354167,28.7317,-95.2428,0201,-9.80,-15.10,18.0000,213.0000
1983-09-04 21:00:00 UTC,2445582.375000,28.7317,-95.2428,0201,-11.18,-16.58,20.0000,214.0000
1983-09-04 21:30:00 UTC,2445582.395833,28.7317,-95.2428,0201,-12.93,-17.80,22.0000,216.0000
1983-09-04 22:00:00 UTC,2445582.416667,28.7317,-95.2428,0201,-12.93,-17.80,22.0000,216.0000
1983-09-04 22:30:00 UTC,2445582.437500,28.7317,-95.2428,0201,-12.64,-16.77,21.0000,217.0000
1983-09-04 23:00:00 UTC,2445582.458333,28.7317,-95.2428,0201,-12.31,-15.76,20.0000,218.0000
1983-09-04 23:30:00 UTC,2445582.479167,28.7317,-95.2428,0201,-12.47,-14.34,19.0000,221.0000
1983-09-05 00:00:00 UTC,2445582.500000,28.7317,-95.2428,0201,-13.67,-13.20,19.0000,226.0000
1983-09-05 00:30:00 UTC,2445582.520833,28.7317,-95.2428,0201,-13.90,-12.96,19.0000,227.0000
1983-09-05 01:00:00 UTC,2445582.541667,28.7317,-95.2428,0201,-12.04,-13.38,18.0000,222.0000
1983-09-05 01:30:00 UTC,2445582.562500,28.7317,-95.2428,0201,-10.70,-13.21,17.0000,219.0000
1983-09-05 02:00:00 UTC,2445582.583333,28.7317,-95.2428,0201,-9.23,-11.82,15.0000,218.0000
1983-09-05 02:30:00 UTC,2445582.604167,28.7317,-95.2428,0201,-7.83,-11.61,14.0000,214.0000
1983-09-05 03:00:00 UTC,2445582.625000,28.7317,-95.2428,0201,-5.07,-10.88,12.0000,205.0000
1983-09-05 03:30:00 UTC,2445582.645833,28.7317,-95.2428,0201,-3.03,-10.57,11.0000,196.0000
1983-09-05 04:00:00 UTC,2445582.666667,28.7317,-95.2428,0201,-1.81,-12.87,13.0000,188.0000
1983-09-05 04:30:00 UTC,2445582.687500,28.7317,-95.2428,0201,-0.79,-14.98,15.0000,183.0000
1983-09-05 05:00:00 UTC,2445582.708333,28.7317,-95.2428,0201,0.00,-16.00,16.0000,180.0000
1983-09-05 05:30:00 UTC,2445582.729167,28.7317,-95.2428,0201,0.00,-17.00,17.0000,180.0000
1983-09-05 06:00:00 UTC,2445582.750000,28.7317,-95.2428,0201,-0.63,-17.99,18.0000,182.0000
1983-09-05 06:30:00 UTC,2445582.770833,28.7317,-95.2428,0201,-1.33,-18.95,19.0000,184.0000
1983-09-05 07:00:00 UTC,2445582.791667,28.7317,-95.2428,0201,-2.44,-19.85,20.0000,187.0000
1983-09-05 07:30:00 UTC,2445582.812500,28.7317,-95.2428,0201,-3.65,-20.68,21.0000,190.0000
1983-09-05 08:00:00 UTC,2445582.833333,28.7317,-95.2428,0201,-7.49,-21.75,23.0000,199.0000
1983-09-05 08:30:00 UTC,2445582.854167,28.7317,-95.2428,0201,-12.12,-21.87,25.0000,209.0000
1983-09-05 09:00:00 UTC,2445582.875000,28.7317,-95.2428,0201,-13.78,-22.05,26.0000,212.0000
1983-09-05 09:30:00 UTC,2445582.895833,28.7317,-95.2428,0201,-13.78,-22.05,26.0000,212.0000
1983-09-05 10:00:00 UTC,2445582.916667,28.7317,-95.2428,0201,-13.62,-20.97,25.0000,213.0000
1983-09-05 10:30:00 UTC,2445582.937500,28.7317,-95.2428,0201,-13.19,-18.84,23.0000,215.0000
1983-09-05 11:00:00 UTC,2445582.958333,28.7317,-95.2428,0201,-12.05,-17.20,21.0000,215.0000
1983-09-05 11:30:00 UTC,2445582.979167,28.7317,-95.2428,0201,-11.17,-15.37,19.0000,216.0000
1983-09-05 12:00:00 UTC,2445583.000000,28.7317,-95.2428,0201,-10.47,-13.40,17.0000,218.0000
1983-09-05 12:30:00 UTC,2445583.020833,28.7317,-95.2428,0201,-10.28,-12.26,16.0000,220.0000
1983-09-05 13:00:00 UTC,2445583.041667,28.7317,-95.2428,0201,-9.84,-11.32,15.0000,221.0000
1983-09-05 13:30:00 UTC,2445583.062500,28.7317,-95.2428,0201,-9.18,-10.57,14.0000,221.0000
1983-09-05 14:00:00 UTC,2445583.083333,28.7317,-95.2428,0201,-9.18,-10.57,14.0000,221.0000
1983-09-05 14:30:00 UTC,2445583.104167,28.7317,-95.2428,0201,-8.00,-10.24,13.0000,218.0000
1983-09-05 15:00:00 UTC,2445583.125000,28.7317,-95.2428,0201,-7.64,-10.52,13.0000,216.0000
1983-09-05 15:30:00 UTC,2445583.145833,28.7317,-95.2428,0201,-8.81,-10.88,14.0000,219.0000
1983-09-05 16:00:00 UTC,2445583.166667,28.7317,-95.2428,0201,-9.33,-7.55,12.0000,231.0000
1983-09-05 16:30:00 UTC,2445583.187500,28.7317,-95.2428,0201,-9.70,-2.42,10.0000,256.0000
1983-09-05 17:00:00 UTC,2445583.208333,28.7317,-95.2428,0201,-8.98,0.63,9.0000,274.0000
1983-09-05 17:30:00 UTC,2445583.229167,28.7317,-95.2428,0201,-6.79,1.69,7.0000,284.0000
1983-09-05 18:00:00 UTC,2445583.250000,28.7317,-95.2428,0201,-3.94,3.08,5.0000,308.0000
1983-09-05 18:30:00 UTC,2445583.270833,28.7317,-95.2428,0201,-1.08,2.80,3.0000,339.0000
1983-09-05 19:00:00 UTC,2445583.291667,28.7317,-95.2428,0201,0.62,1.90,2.0000,18.0000
1983-09-05 19:30:00 UTC,2445583.312500,28.7317,-95.2428,0201,1.20,1.60,2.0000,37.0000
1983-09-05 20:00:00 UTC,2445583.333333,28.7317,-95.2428,0201,0.00,-0.00,0.0000,158.0000
1983-09-05 20:30:00 UTC,2445583.354167,28.7317,-95.2428,0201,-1.03,-2.82,3.0000,200.0000
1983-09-05 21:00:00 UTC,2445583.375000,28.7317,-95.2428,0201,-1.95,-5.67,6.0000,199.0000
1983-09-05 21:30:00 UTC,2445583.395833,28.7317,-95.2428,0201,-1.93,-6.73,7.0000,196.0000
1983-09-05 22:00:00 UTC,2445583.416667,28.7317,-95.2428,0201,-2.02,-8.77,9.0000,193.0000
1983-09-05 22:30:00 UTC,2445583.437500,28.7317,-95.2428,0201,-1.88,-11.85,12.0000,189.0000
1983-09-05 23:00:00 UTC,2445583.458333,28.7317,-95.2428,0201,-1.71,-13.90,14.0000,187.0000
1983-09-05 23:30:00 UTC,2445583.479167,28.7317,-95.2428,0201,-2.07,-16.87,17.0000,187.0000
1983-09-06 00:00:00 UTC,2445583.500000,28.7317,-95.2428,0201,-4.35,-17.47,18.0000,194.0000
1983-09-06 00:30:00 UTC,2445583.520833,28.7317,-95.2428,0201,-7.32,-16.44,18.0000,204.0000
1983-09-06 01:00:00 UTC,2445583.541667,28.7317,-95.2428,0201,-9.00,-15.59,18.0000,210.0000
1983-09-06 01:30:00 UTC,2445583.562500,28.7317,-95.2428,0201,-9.26,-14.26,17.0000,213.0000
1983-09-06 02:00:00 UTC,2445583.583333,28.7317,-95.2428,0201,-7.95,-12.72,15.0000,212.0000
1983-09-06 02:30:00 UTC,2445583.604167,28.7317,-95.2428,0201,-7.21,-12.00,14.0000,211.0000
1983-09-06 03:00:00 UTC,2445583.625000,28.7317,-95.2428,0201,-8.03,-11.47,14.0000,215.0000
1983-09-06 03:30:00 UTC,2445583.645833,28.7317,-95.2428,0201,-9.00,-10.72,14.0000,220.0000
1983-09-06 04:00:00 UTC,2445583.666667,28.7317,-95.2428,0201,-9.23,-11.82,15.0000,218.0000
1983-09-06 04:30:00 UTC,2445583.687500,28.7317,-95.2428,0201,-8.82,-12.14,15.0000,216.0000
1983-09-06 05:00:00 UTC,2445583.708333,28.7317,-95.2428,0201,-8.17,-12.58,15.0000,213.0000
1983-09-06 05:30:00 UTC,2445583.729167,28.7317,-95.2428,0201,-6.30,-11.37,13.0000,209.0000
1983-09-06 06:00:00 UTC,2445583.750000,28.7317,-95.2428,0201,-6.77,-8.67,11.0000,218.0000
1983-09-06 06:30:00 UTC,2445583.770833,28.7317,-95.2428,0201,-9.33,-7.55,12.0000,231.0000
1983-09-06 07:00:00 UTC,2445583.791667,28.7317,-95.2428,0201,-10.42,-10.79,15.0000,224.0000
1983-09-06 07:30:00 UTC,2445583.812500,28.7317,-95.2428,0201,-10.83,-14.38,18.0000,217.0000
1983-09-06 08:00:00 UTC,2445583.833333,28.7317,-95.2428,0201,-12.86,-15.32,20.0000,220.0000
1983-09-06 08:30:00 UTC,2445583.854167,28.7317,-95.2428,0201,-15.39,-17.09,23.0000,222.0000
1983-09-06 09:00:00 UTC,2445583.875000,28.7317,-95.2428,0201,-15.73,-19.43,25.0000,219.0000
1983-09-06 09:30:00 UTC,2445583.895833,28.7317,-95.2428,0201,-15.65,-20.76,26.0000,217.0000
1983-09-06 10:00:00 UTC,2445583.916667,28.7317,-95.2428,0201,-15.65,-20.76,26.0000,217.0000